Weather History for Odessa, TX

Change the Weather History Date:

Monday, December 3, 2012

  Actual Average (KMAF) Record (KMAF)
Temperature  
Mean Temperature 66 °F 46 °F  
Max Temperature 78 °F 60 °F 83 °F (1954)
Min Temperature 51 °F 33 °F 19 °F (1985)
Degree Days  
Heating Degree Days 0 19  
Month to date heating degree days 55  
Since 1 July heating degree days 534  
Growing Degree Days 16 (Base 50)    
Moisture  
Dew Point 44 °F    
Average Humidity 66    
Maximum Humidity 100    
Minimum Humidity 12    
Precipitation  
Precipitation 0.00 in 0.02 in 0.84 in (2002)
Month to date precipitation 0.06  
Year to date precipitation 14.06  
Snow  
Snow 0.00 in - - ()
Month to date snowfall  
Since 1 July snowfall  
Snow Depth -    
Sea Level Pressure  
Sea Level Pressure 29.94 in    
Wind  
Wind Speed 10 mph (SW)    
Max Wind Speed 14 mph    
Max Gust Speed 24 mph    
Visibility 6 miles    
Events      
T = Trace of Precipitation, MM = Missing Value Source: NWS Daily Summary

Daily Weather History Graph

Daily Weather History Graph

Search for Another Location

Airport:

Trip Planner

Search our weather history database for the weather conditions in past years. The results will help you decide how hot, cold, wet, or windy it might be!

Date:

Astronomy

Dec. 03, 2012 Rise Set
Actual Time 7:34 AM CST 5:45 PM CST
Civil Twilight 7:07 AM CST 6:11 PM CST
Nautical Twilight 6:37 AM CST 6:41 PM CST
Astronomical Twilight 6:07 AM CST 7:11 PM CST
Moon 10:24 PM CST (12/3) 11:06 AM CST (12/3)
Length of Visible Light 11h 04m
Length of Day
10h 10m
Waning Gibbous, 78% of the Moon is Illuminated
Dec 3
Waning Gibbous
Dec 6
Last Quarter
Dec 13
New
Dec 19
First Quarter
Dec 28
Full

Hourly Weather History & Observations

Time (CST) Temp. Dew Point Humidity Pressure Visibility Wind Dir Wind Speed Gust Speed Precip Events Conditions
12:53 AM 59.0 °F 57.9 °F 96% 29.92 in 4.0 mi SSW 11.5 mph - N/A   Overcast
1:53 AM 59.0 °F 57.9 °F 96% 29.90 in 4.0 mi South 12.7 mph - N/A   Mostly Cloudy
2:01 AM 57.2 °F 57.2 °F 100% 30.00 in 4.0 mi South 10.4 mph - N/A   Scattered Clouds
2:36 AM 57.2 °F 57.2 °F 100% 30.00 in 4.0 mi South 10.4 mph - N/A   Mostly Cloudy
2:53 AM 57.9 °F 57.9 °F 100% 29.90 in 4.0 mi South 9.2 mph - N/A   Overcast
3:48 AM 57.2 °F 57.2 °F 100% 30.00 in 4.0 mi South 11.5 mph - N/A   Partly Cloudy
3:53 AM 57.0 °F 57.0 °F 100% 29.90 in 4.0 mi South 9.2 mph - N/A   Partly Cloudy
4:53 AM 57.0 °F 55.9 °F 96% 29.88 in 5.0 mi SSW 9.2 mph - N/A   Clear
5:34 AM 55.4 °F 55.4 °F 100% 29.99 in 4.0 mi SSW 9.2 mph - N/A   Scattered Clouds
5:43 AM 57.2 °F 57.2 °F 100% 29.99 in 3.0 mi SSW 10.4 mph - N/A   Mostly Cloudy
5:53 AM 57.0 °F 57.0 °F 100% 29.89 in 2.5 mi SSW 10.4 mph - N/A   Overcast
6:04 AM 57.2 °F 57.2 °F 100% 29.99 in 1.5 mi SSW 10.4 mph - N/A   Overcast
7:34 AM 55.4 °F 55.4 °F 100% 30.00 in 2.5 mi SSW 11.5 mph - N/A   Overcast
7:53 AM 55.0 °F 55.0 °F 100% 29.92 in 2.5 mi SSW 10.4 mph - N/A   Mostly Cloudy
7:58 AM 55.4 °F 55.4 °F 100% 30.00 in 3.0 mi SSW 9.2 mph - N/A   Scattered Clouds
8:28 AM 55.4 °F 53.6 °F 94% 30.01 in 2.5 mi SSW 10.4 mph - N/A   Mostly Cloudy
9:14 AM 57.2 °F 55.4 °F 94% 30.03 in 5.0 mi SW 6.9 mph - N/A   Scattered Clouds
9:53 AM 60.1 °F 52.0 °F 75% 29.96 in 10.0 mi SW 10.4 mph - N/A   Clear
10:53 AM 69.1 °F 39.0 °F 33% 29.96 in 10.0 mi WSW 11.5 mph 20.7 mph N/A   Clear
11:53 AM 72.0 °F 34.0 °F 25% 29.94 in 10.0 mi WSW 13.8 mph 20.7 mph N/A   Clear
12:53 PM 75.0 °F 27.0 °F 17% 29.91 in 10.0 mi West 13.8 mph 24.2 mph N/A   Clear
1:53 PM 78.1 °F 23.0 °F 13% 29.88 in 10.0 mi West 11.5 mph 18.4 mph N/A   Clear
2:53 PM 78.1 °F 21.9 °F 12% 29.86 in 10.0 mi WNW 8.1 mph - N/A   Clear
3:53 PM 78.1 °F 21.9 °F 12% 29.87 in 10.0 mi NW 10.4 mph - N/A   Clear
4:53 PM 77.0 °F 21.9 °F 13% 29.86 in 10.0 mi Calm Calm - N/A   Clear
5:53 PM 71.1 °F 23.0 °F 16% 29.87 in 10.0 mi West 3.5 mph - N/A   Clear
6:53 PM 61.0 °F 26.1 °F 26% 29.91 in 10.0 mi Calm Calm - N/A   Clear
7:53 PM 57.9 °F 27.0 °F 31% 29.93 in 7.0 mi Calm Calm - N/A   Clear
8:53 PM 57.9 °F 27.0 °F 31% 29.97 in 10.0 mi NW 5.8 mph - N/A   Clear
9:53 PM 53.1 °F 27.0 °F 37% 29.99 in 10.0 mi NW 9.2 mph - N/A   Clear
10:53 PM 51.1 °F 26.1 °F 38% 30.00 in 10.0 mi Calm Calm - N/A   Clear